This is the latest recevied weather packets stored in our database for station/object JH7UAX-10. If no packets are shown the sender has not sent any weather packets the latest 10 day(s).
| Time | Temp. | Humidity | Pressure | Rain* | Wind** | Luminosity | Snow |
|---|---|---|---|---|---|---|---|
| 1787995754 | 20.56° C | 79% | 1023.2 hPa | 0 mm | - | - | - |
| 1787994854 | 20.56° C | 79% | 1023.1 hPa | 0 mm | - | - | - |
| 1787993954 | 21.11° C | 79% | 1023.1 hPa | 0 mm | - | - | - |
| 1787993055 | 21.11° C | 79% | 1023.1 hPa | 0 mm | - | - | - |
| 1787992155 | 21.67° C | 79% | 1023.1 hPa | 0 mm | - | - | - |
| 1787991254 | 21.67° C | 78% | 1022.9 hPa | 0 mm | - | - | - |
| 1787990354 | 22.22° C | 78% | 1022.7 hPa | 0 mm | - | - | - |
| 1787989454 | 22.22° C | 78% | 1022.7 hPa | 0 mm | - | - | - |
| 1787988554 | 22.22° C | 77% | 1022.8 hPa | 0 mm | - | - | - |
| 1787987653 | 22.22° C | 77% | 1022.7 hPa | 0 mm | - | - | - |
| 1787986754 | 22.78° C | 76% | 1022.7 hPa | 0 mm | - | - | - |
| 1787985854 | 23.33° C | 75% | 1022.6 hPa | 0 mm | - | - | - |
| 1787984954 | 23.33° C | 75% | 1022.7 hPa | 0 mm | - | - | - |
| 1787984054 | 23.33° C | 76% | 1022.7 hPa | 0 mm | - | - | - |
| 1787983153 | 23.33° C | 73% | 1022.7 hPa | 0 mm | - | - | - |
| 1787982254 | 23.33° C | 74% | 1022.9 hPa | 0 mm | - | - | - |
| 1787979553 | 23.89° C | 71% | 1022.8 hPa | 0 mm | - | - | - |
| 1787976855 | 23.89° C | 70% | 1023.4 hPa | 0 mm | - | - | - |
| 1787975971 | 24.44° C | 69% | 1023.3 hPa | 0 mm | - | - | - |
| 1787975054 | 25° C | 65% | 1023.3 hPa | 0 mm | - | - | - |
| 1787971453 | 23.89° C | 71% | 1023.4 hPa | 0 mm | - | - | - |
| 1787970554 | 24.44° C | 72% | 1023.5 hPa | 0 mm | - | - | - |
| 1787969654 | 23.89° C | 69% | 1023.7 hPa | 0 mm | - | - | - |
| 1787968753 | 23.89° C | 68% | 1023.7 hPa | 0 mm | - | - | - |
| 1787967856 | 24.44° C | 69% | 1023.9 hPa | 0 mm | - | - | - |
* Rain latest hour (hover to see other rain measurements)
** Current wind speed in m/s (hover to see current wind gust speed)